Sunday, May 8, 2011

Photo: Mississippi River 16.38' - by Sister Street Levee: New Orleans May 8, 2011




STATION  Flood Stage  7PM 12HR ....F O R E C A S T.....        CREST DATE

BATON ROUGE           
5-4-11   35 35.4 +0.5 35.6 36.4 37.0 37.7 38.4 47.5       05/23P A.05/03
5-5-11   35 36.3 +0.4 36.9  37.9 39.0 40.1 41.1 47.5      05/23P
5-6-11  *37.76
5-7-11  *38.39 24hr + 0.78
5-8-11  *39.52 24hr + 1.13
5-9-11  *40.2   24hr + 1.20
5-10-11 *41.89 24hr+ 1.00
5-11-11 *42.69 24hr +0.64
5-12-11 missing data
5-13-11 *43.68 24hr +0.29
5-14-11 *43.92 24hr +0.50
5-15-11 *44.35 24hr +0.53
5-16-11 *44.44 24hr +0.04
5-17-11 *44.73 24hr +0.31
5-18-11 *44.72 24 hr+0.12
5-19-11 *44.71 24HR-0.03


DONALDSONVILLE   
5-4-11   27 25.1 +0.5 25.3 25.9 26.5 27.0 27.6 36.0       05/23P A.05/06P
5-5-11   27 26.1 +0.6 26.6 27.6 28.7 29.7 30.7 36.0       05/23P
5-6-11  *27.33
5-7-11 *27.83 24hr + 0.68
5-8-11 *28.80 24hr +0.99
5-9-11 *29.88 24hr +1.08
5-10-11*30.73 24hr+0.76
5-11-11*31.10 24hr+0.45
5-12-11 missing data
5-13-11 *31.84 24hr +0.34
5-14-11 *31.97 24hr +0.40
5-15-11 *32.14 24hr +033
5-16-11 *32.38 24hr +0.24
5-17-11 *32.30  24hr -0.04
5-18-11*32.43  24hr +0.13
5-19-11 *32.39  24hr  0.00

RESERVE     
 5-4-11  22 19.3E MSG 19.4 19.9 20.4 20.9 21.3 25.0    05/24A A.05/13A
 5-5-11  22 20.2 +0.7     20.1 20.7 21.3 21.9 22.5 25.0    05/24A
 5-6-11  *21.04
 5-7-11  *21.45 24hr +0.53  
5-8-11   *22.20 24hr +0.75 
5-9-11   *23.12 24hr +0.92 
5-10-11 *23.46 24hr +0.66
5-11-11 *23.76 24hr +0.20
5-12-11 missing data
5-13-11  *23.46 24hr -0.08
5-14-11 *23.60 24hr +0.03
5-15-11 *23.59 24hr +0.04
5-16-11 *23.81 24hr - 0.05
5-17-11 *23.85 24hr +0.07
5-18-11 *23.90 24hr +0.07
5-19-11*23.94 24hr  +0.04

BONNE CARRE - NORTH OF SPILLWAY
5-7-11  19.40  24hr +0.47
5-8-11  20.05 24hr +0.60
5-9-11  20.90 24hr +0.85
5-10-11 21.30 24hr +0.37
5-11-11 21.33 24hr +0.09
5-12-11 missing data
5-13-11 20.80 24hr -0.13
5-14-11 20.88 24hr +0.07
5-15-11 20.87 24hr -0.01
5-16-11 21.08 24hr -0.10
5-17-11 21.02 24hr -0.02
5-18-11 21.13 24hr +0.07
5-19-11 21.26 24hr +0.04

BONNE CARRE (01280)
5-7-11 19.39 24hr +0.47
5-8-11 20.05 24hr +0.70
5-9-11 20.05 24hr +0.60
5-10-11 21.38 24hr +0.36
5-11-11 21.47 24hr +0.08 After 2nd opeing Bonne Carre Spillway
5-12-11 missing data
5-13-11 21.40 24hr -0.15
5-14-11 21.26
24hr +0.03

5-15-11 21.26 24hr +0.05
5-16-11 21.47 24hr +0.11
5-17-11 21.46 24hr +0.08
5-18-11 21.48 24hr +0.04
5-19-11 21.56 24hr -0.05

NEW ORLEANS (CARROLLTON 01300)  
5-4-11  17 14.0E MSG 14.0 14.4 14.7 15.1 15.4 17.0    05/24A
5-5-11  17 14.7  +0.6   14.5  15.0 15.3 15.7 16.1 17.0   05/24A
5-6-11  17 *15.16 +0.5 15.4 15.9 16.3 16.6 17.1 19.5    05/24A A.5/11A
5-7-11  17 *15.51 24hr +0.40
5-8-11  17 *15.85 24hr +0.57
5-9-11  17 *16.51 24hr +0.66 After opening of Bonne Carre: 16.65 24hr +0.51 1400 hrs
                                                                                                         16.71 24hr +0.33 1700 hrs
5-10-11 17  *16.96 24hr +0.33
5-11-11 17  *17.04 24hr +0.13
5-12-11 17 missing data
5-13-11 17  *16.70 24hr -0.08
5-14-11 17 *16.80 24hr +0.02 w/24hr precip +0.42 
5-15-11 17 *16.88 24hr +0.12 After opening of Morganza Spillway 5-14-11
5-16-11 17 *17.05 24hr +0.03
5-17-11 17 *17.15 24hr +0.17
5-18-11 17 *17.19 24hr  -0.03
5-19-11 17 *`7.21 24hr +0.01
As of 5/20/11 alll updates can be found at this blog posting: http://postkatrina2008.blogspot.com/2011/05/may-3-2011-photos-new-orleans-levee-137.html
or go to the source:
NEW ORLEANS FORECAST ASSUMES UPSTREAM STRUCTURES WILL BE OPERATED TO MAINTAIN STAGE OF 17.0 FEET


FLOOD FIGHT 2011
US ARMY CORPS ENGINEERS


Louisiana:
New Orleans:



UPDATES: ARMY CORPS ENGINEERS:

Monday, May 9, 2011
The Bonnet Carré Spillway will be open on Monday, May 9, 2011 in order to keep the volume of Mississippi River flows at New Orleans from exceeding 1.25 million cubic feet per second (cfs). Opening procedures will begin at approximately 8 a.m. Media and the general public are allowed to view the spillway opening at the Bonnet Carré Spillway Project Office, located at 16302 River Roadin Norco, Louisiana. The opening of the Bonnet Carre Spillway can be watched from your computer by going to the following link http://www.ustream.tv/channel/bonnet-carre. We anticipate the channel will be live at approximately 0755 on Monday, May 9, 2011.

No comments: